Regional Weather Roundup
Issued by NWS Wakefield, VA

Home | Current Version | Previous Version | Text Only | Print | Product List | Glossary Off
Versions: 1 2 3 4 5 6 7 8 9 10 11 12 13 14 15 16 17 18 19 20 21 22 23 24 25 26 27 28 29 30 31 32 33 34 35 36 37 38 39 40 41 42 43 44 45 46 47 48 49 50

000
ASUS41 KAKQ 050515
RWRAKQ

REGIONAL WEATHER ROUNDUP
NATIONAL WEATHER SERVICE WAKEFIELD VA
100 AM EDT SAT SEP 05 2015

Note: "fair" indicates few or no clouds below 12,000 feet with no
significant weather and/or obstructions to visibility. * = Denotes
station may not report precipitation (e.g., rain,snow,etc.),
thunder or fog.

VAZ042-051-052>054-056-050600-
NORTHERN VIRGINIA

CITY           SKY/WX    TMP DP  RH WIND       PRES   REMARKS
WASH NATIONAL  MOCLDY    76  70  82 E7        30.15R
DULLES         PTCLDY    73  70  90 CALM      30.16R
FORT BELVOIR   PTCLDY    75  70  84 CALM      30.15R
QUANTICO       PTCLDY    74  70  87 E6        30.15R
FREDERICKSBRG* PTCLDY    74  71  88 NE5       30.13R
STAFFORD*      PTCLDY    72  70  92 NE6       30.18R FOG
WARRENTON      FOG       69  69 100 CALM      30.15R VSB 1/2
CULPEPER*      PTCLDY    69  68  98 CALM      30.15S FOG
MANASSAS*      PTCLDY    73  72  94 CALM      30.15R
LEESBURG*      MOCLDY    75  73  94 CALM      30.18R
WINCHESTER     MOCLDY    70  68  94 CALM      30.17R
FRONT ROYAL*   FAIR      72  68  88 W3        30.15S
LURAY*         MOCLDY    68  68 100 CALM      30.16S FOG
$$

VAZ048-049-060>072-079>083-050600-
CENTRAL AND SOUTH CENTRAL VIRGINIA

CITY           SKY/WX    TMP DP  RH WIND       PRES   REMARKS
RICHMOND       PTCLDY    73  69  87 NE5       30.11S
CHESTERFIELD*  FAIR      72  61  68 CALM      30.13R
PETERSBURG*    CLEAR     68  68 100 CALM      30.11S FOG
HANOVER        FOG       69  68  96 CALM      30.14R VSB 3/4
TAPPAHANNOCK*  PTCLDY    71  67  88 CALM      30.12S FOG
QUINTON*       FAIR      69  68  97 N3        30.10F
CHARLOTTSVILLE MOCLDY    70  66  87 CALM      30.15R
GORDONSVILLE*  MOCLDY    69  69 100 CALM      30.14S FOG
ORANGE*        FOG       70  70 100 CALM      30.16R VSB 1
LOUISA*        MOCLDY    70  70 100 CALM      30.13S FOG
BUMPASS*       MOCLDY    70  70  99 CALM      30.14R
FARMVILLE*     MOCLDY    69  69 100 N3        30.12R
CREWE*         FAIR     N/A N/A N/A NW3       30.12R
FORT PICKETT*  FAIR      69  68  97 N5        30.12R
CHASE CITY*    FAIR      72  72 100 CALM      30.12R
CLARKSVILLE*   FAIR      70  68  94 NE5       30.11R
SOUTH HILL*    CLEAR     66  66  99 CALM      30.17R
LAWRENCEVILLE* FAIR      68  68 100 CALM      30.10S
EMPORIA*       CLEAR     68  68 100 NW3       30.11S FOG
$$

VAZ088>098-050600-
SOUTHEAST VIRGINIA

CITY           SKY/WX    TMP DP  RH WIND       PRES   REMARKS
NORFOLK        CLEAR     79  71  76 NE12      30.07S
VIRGINIA BEACH PTCLDY    82  72  71 NE7       30.06S
NORFOLK NAVAL  MOCLDY    79  72  79 NE10      30.09S
WEST POINT*    PTCLDY    71  69  90 N3        30.11F
SALUDA*        CLOUDY    76  73  88 NE9       30.09F
NEWPORT NEWS   PTCLDY    77  72  84 NE8       30.08F
LANGLEY AFB    CLEAR     77  73  87 NE14      30.07S
FORT EUSTIS    MOCLDY    77  77 100 NE3       30.07S
WILLIAMSBURG*  CLEAR     75  73  94 CALM      30.10F
HR EXEC AP*      N/A     70  66  88 NE3       30.09F
FRANKLIN*      FAIR      68  67  98 CALM      30.08F FOG
WAKEFIELD      CLEAR     72  68  87 CALM      30.09S FOG
$$

VAZ020-022-025-037-045-050600-
WEST CENTRAL AND SOUTHWEST VIRGINIA

CITY           SKY/WX    TMP DP  RH WIND       PRES   REMARKS
STAUNTON*      PTCLDY    69  66  91 CALM      30.19S
WAYNESBORO*    MOCLDY    68  67  96 CALM      30.18S
HOT SPRINGS VA MOCLDY    65  64  95 E7        30.26F
LYNCHBURG      CLOUDY    71  66  84 N5        30.16S THUNDER
DANVILLE       PTCLDY    71  67  87 NE6       30.12R
SOUTH BOSTON*  FAIR      68  67  95 CALM      30.12R
MARTINSVILLE   PTCLDY    66  66 100 CALM      30.17R
ROANOKE        MOCLDY    67  65  93 CALM      30.18R
BLACKSBURG     PTCLDY    63  63 100 CALM      30.22S FOG
DUBLIN*          N/A     64  64  99 CALM      30.21S FOG
MARION*        MOCLDY    65  61  88 NE3       30.23S
HILLSVILLE*    MOCLDY    62  62  97 CALM      30.21S
RICHLANDS*     FAIR      68  32  26 E5        30.19S
WISE*          PTCLDY    66  63  88 S5        30.20S
ABINGDON*      CLEAR     70  62  75 E6        30.16S
$$

MDZ021>025-VAZ099-100-050600-
SOUTHERN MARYLAND AND THE DELMARVA PENINSULA

CITY           SKY/WX    TMP DP  RH WIND       PRES   REMARKS
PATUXENT RIVER CLOUDY    75  70  84 NE10      30.12F
BAY BRIDGE APT   N/A     73  68  83 NE8       30.15S
LEONARDTOWN    NOT AVBL
DOVER          MOCLDY    74  70  89 NE12      30.14S
GEORGETOWN     MOCLDY    74  70  87 NE9       30.14F
EASTON         NOT AVBL
CAMBRIDGE      CLEAR     72  68  88 NE6       30.12F
SALISBURY      PTCLDY    73  71  93 NE8       30.12F
OCEAN CITY     MOCLDY    77  71  82 E12       30.11F
WALLOPS ISLAND MOCLDY    77  73  87 NE18G24   30.10F
ACCOMACK*      MOCLDY    72  63  73 NE7       30.07S
$$

NCZ012>017-030>032-050600-
NORTH CENTRAL AND EASTERN NORTH CAROLINA

CITY           SKY/WX    TMP DP  RH WIND       PRES   REMARKS
ROANOKE RAPIDS FAIR      70  68  94 N3        30.08S FOG
RALEIGH        PTCLDY    72  68  87 NE6       30.09R
ELIZABETH CITY PTCLDY    76  72  87 N7        30.06R
AHOSKIE*       CLEAR     70  68  95 CALM      30.08S FOG
EDENTON*       CLEAR     71  69  94 N5        30.05F FOG
CURRITUCK*     PTCLDY    79  68  69 NE8       30.06F
KILL DEVIL HLS PTCLDY    78  73  83 NE8G16    30.02F
MANTEO         CLEAR     78  71  80 NE13      30.03F
CAPE HATTERAS  MOCLDY    80  72  76 NE8G17    30.01R
TARBORO*       FAIR      71  69  95 NE3       30.07F FOG
GOLDSBORO      CLEAR     71  70  95 N3        30.04R
WASHINGTON     CLEAR     72  70  94 NE5       30.04F FOG
GREENVILLE     CLEAR     72  72 100 N5        30.07S FOG
NEW BERN       CLEAR     74  71  91 N6        30.04S FOG
WILMINGTON     MOCLDY    73  69  87 CALM      30.02R
$$

VAZ048-050600-
ELSEWHERE

CITY           SKY/WX    TMP DP  RH WIND       PRES   REMARKS
HARRISBURG PA  MOCLDY    75  66  73 SE8       30.17S
BALTIMORE      MOCLDY    75  67  76 E9        30.16R
ANNAPOLIS      CLEAR     76  70  82 E8        30.15R
ANDREWS AFB    MOCLDY    73  70  88 E6        30.15R
PHILADELPHIA   MOCLDY    73  65  75 E10       30.19S
HENDERSON NC   PTCLDY    69  67  92 N3        30.11R FOG
GREENSBORO     MOCLDY    70  66  87 NE6       30.11S
ROCKY MOUNT    CLEAR     73  70  90 NE7       30.07S FOG
$$

VAZ100-050600-
MARINE

STATION/POSITION TIME  TEMP    WIND        PRES    WAVE   SWELL
                       AIR SEA DIR/SP/G            HT/PER HT/PER
                 (UTC) (F)     (DEG/KT/KT) (MB)    (FT/S) (FT/S)
BRANDYWINE LGT   0400   75 77   70/ 16/ 18 1021.1R
CAPE MAY NJ      0400   76 81   60/  4/  9 1020.6R
LEWES DE         0400   75 78   70/ 14/ 16 1020.6R
15NM E FENWICK I 0450   78 79   40/ 17/ 21 1019.4F   6/ 6
OCEAN-CITY-INLET 0400   77 79   70/  9/ 14 1019.1R
GOOSES REEF MD   0500   77 80   80/ 14/ 17 1021.1F
COVE POINT MD    0400   75      80/ 13/ 16 1021.1R
SOLOMONS ISLAND  0400      83                N/A
BISHOPS HEAD MD  0400   76 82   50/ 12/ 14 1019.0R
PINEY POINT MD   0405           70/  7/  8   N/A
POTOMAC MD       0500   77 80   70/ 16/ 19 1018.3F   1/ 3
CAMBRIDGE MD     0400   75 83   40/ 10/ 14 1019.6R
LEWISETTA VA     0400   78 82   70/ 15/ 18 1019.3R
RAPPAHANNOCK LGT 0400           40/ 17/ 20 1019.3S
STINGRAY PT      0500   79 81   70/ 16/ 19 1019.2F   2/ 3
YORK RVR RNG VA  0400   79      60/ 18/ 20 1018.2R
YORKTOWN VA      0400   79 81   50/ 12/ 15 1018.5R
JAMESTOWN VA     0500   76 82   40/  4/  6   N/A
DOMINION TERM VA 0400   79      50/  6/ 12 1018.5R
KIPTOPEKE VA     0400      81   60/  6/ 10   N/A
CHES BAY BRIDGE  0400   79 80   20/ 17/ 19 1017.7R
CAPE HENRY VA    0400   79      50/ 17/ 21   N/A
CHESAPEAKE LGHT  0400   79      50/ 14/ 16 1018.6R
WILLOUBY STN VA  0400   79      40/ 14/ 16 1019.5R
CAPE HENRY BUOY  0428      80                N/A     3/ 5
1ST LANDING BUOY 0500      79              1017.9S   3/ 3
CAPE CHARLES BUO 0426      80                N/A     4/ 4   2/11
OFFSHORE WE BUOY 0411      80                N/A     4/ 5   2/11
64NM E OF VA BCH 0450   80 80   50/ 16/ 17 1016.6S   4/ 5   2/ 8
DUCK PIER NC     0400   80 80   50/ 17/ 19 1016.6R
44100 DUCK FRF   0424      80                N/A     4/ 5
44056 DUCK FRF   0411      80                N/A     4/ 5
OREGON INLET NC  0400   79 82   40/ 14/ 17 1016.4S
HATTERAS NC      0400   80 84   70/  9/ 14 1015.5F
DIAMOND SHLS NC  0450   82 84   70/ 14/ 19 1015.2F   3/ 4
CAPE LOOKOUT NC  0500   81      40/ 16/ 17 1015.4F
$$



USA.gov is the U.S. government's official web portal to all federal, state and local government web resources and services.